Wind_Speed
50 50 50 50 49 48 47 46 46 47 47 47 47 47 46 46 47 47 47 48 48 50 50 51 53 55 56 56 56 56 55 54 54 54 54 52 51 49 48 48 48 48 46 44 44 45 44 43 42 42 43 45 47 48 47 46 47 48 48 48 49 49 49 49 49 49 50 50 51 51 52 53 53 53 53 53 54 55 56 58 58 59 59 60 60 60 60 60
49 49 49 49 50 49 48 47 47 47 47 47 47 47 47 47 47 47 47 47 48 50 51 53 54 56 56 56 55 55 54 53 52 52 53 52 51 49 48 48 48 48 48 48 46 46 47 46 45 44 44 46 48 50 50 50 50 50 51 52 53 52 53 53 54 54 55 55 55 55 56 57 58 57 56 56 57 58 60 61 60 60 61 61 61 61 61 62
50 49 49 49 49 48 47 46 45 45 45 46 46 46 46 46 46 46 46 47 49 51 52 53 55 56 56 55 54 54 53 52 51 51 51 51 50 49 47 47 48 49 50 50 49 48 48 49 48 48 47 47 48 50 52 53 54 55 56 57 57 57 58 58 58 59 59 60 61 61 60 60 60 59 58 58 58 59 61 60 61 61 62 62 62 62 63 64
51 50 49 48 47 45 44 43 43 43 43 43 44 44 43 43 43 43 45 47 49 51 52 53 54 54 54 54 54 53 51 50 50 50 50 50 49 48 46 46 48 50 51 51 51 50 50 51 52 51 51 51 51 52 53 54 55 57 58 60 61 62 61 60 60 60 61 62 63 62 61 61 61 59 59 58 58 61 61 61 63 64 63 63 64 64 65 66
50 48 47 47 46 44 42 42 41 41 41 41 41 41 40 40 41 42 45 47 48 50 51 52 53 53 53 53 52 52 51 49 49 48 48 47 47 46 46 46 48 50 51 52 52 52 53 54 55 55 55 55 56 56 55 56 56 57 58 59 61 62 62 61 60 60 60 60 60 60 60 60 60 60 59 59 60 62 63 64 66 66 66 66 66 66 67 67
48 45 45 45 45 43 40 40 39 38 38 38 38 37 38 39 40 42 44 46 47 49 50 51 52 52 52 52 51 50 49 49 48 47 46 45 45 45 46 46 47 49 51 52 53 54 56 57 58 59 58 57 57 58 58 58 58 58 60 61 62 62 61 60 60 59 58 59 60 61 61 62 62 63 64 65 67 66 66 66 66 66 67 67 67 68 68 68
46 43 44 45 43 40 37 36 36 35 34 34 35 35 37 39 41 43 44 46 47 49 50 51 51 51 50 50 49 49 48 47 46 45 44 43 44 44 44 45 46 48 50 52 55 56 58 59 61 62 61 60 60 60 61 61 62 62 63 65 65 65 64 62 60 59 59 59 61 62 63 63 64 65 67 70 71 69 69 70 69 68 68 68 68 68 69 69
43 42 43 42 39 36 34 33 32 32 32 33 34 36 38 40 42 43 44 46 47 48 49 50 49 49 48 48 47 47 47 45 44 43 43 42 42 43 43 45 46 47 49 52 54 56 58 60 62 64 64 64 64 64 65 65 66 67 67 66 65 65 65 65 64 63 63 62 63 64 65 65 66 66 69 72 71 68 70 72 72 71 70 71 71 71 72 73
42 41 39 37 35 32 30 30 31 31 32 34 36 38 40 41 42 43 44 45 47 47 48 48 47 47 46 46 45 45 44 43 42 41 41 41 42 43 44 45 46 47 49 51 53 55 58 60 62 64 65 66 66 67 68 69 69 68 66 65 65 65 65 66 66 66 66 67 66 67 67 68 69 69 72 74 71 69 70 71 72 72 73 74 74 74 75 78
39 38 35 33 32 30 29 30 31 32 34 36 37 39 40 41 42 43 44 44 45 45 45 45 45 45 45 44 43 42 41 41 40 40 40 41 42 42 43 45 46 47 48 50 52 54 56 58 60 62 64 65 66 68 69 69 69 69 68 68 68 69 69 69 69 69 69 69 69 69 69 70 73 73 75 76 73 72 72 72 74 75 76 77 78 79 81 84
37 35 33 32 30 30 31 32 33 34 36 37 38 39 40 40 41 42 42 43 43 43 43 43 43 43 42 41 40 40 39 39 39 39 40 40 41 42 43 44 45 46 47 49 50 52 54 55 57 59 61 63 65 66 68 69 70 71 72 72 73 74 74 75 75 75 75 75 74 73 72 73 75 76 77 78 77 76 77 78 79 79 81 82 84 86 88 89
35 34 33 32 31 31 32 33 34 36 37 38 38 39 40 40 40 40 41 41 41 42 41 42 41 40 39 39 38 38 38 38 39 39 39 40 41 42 43 44 45 46 47 48 49 51 52 54 55 57 59 61 62 64 65 67 69 71 73 74 76 77 79 80 80 81 82 81 81 80 78 79 81 81 81 82 82 81 82 83 84 84 85 87 89 91 92 93
34 33 33 32 32 33 34 35 35 36 37 38 39 39 39 39 39 39 39 40 40 40 40 39 38 38 37 37 37 38 38 38 39 39 39 40 41 42 43 44 45 46 46 47 48 50 51 53 54 55 57 58 60 61 63 65 66 67 69 72 74 76 78 80 81 82 83 83 83 82 81 83 87 87 87 86 86 86 87 87 88 89 89 90 91 91 92 92
33 33 33 33 33 33 34 35 36 37 38 38 38 38 38 37 38 38 39 39 38 38 37 37 36 36 36 36 37 37 38 38 39 39 40 41 41 42 43 43 44 45 46 47 48 49 51 52 53 54 56 57 58 60 61 62 63 64 65 68 69 71 73 75 77 77 78 78 79 78 77 79 84 85 84 83 83 84 85 85 86 86 86 86 86 86 87 87
34 34 34 33 33 34 35 36 36 37 38 38 37 36 36 37 37 37 37 37 36 36 35 35 35 36 36 36 37 37 38 39 40 40 41 41 42 42 43 44 45 46 47 48 49 50 51 52 53 54 55 56 57 59 60 61 62 63 63 65 66 67 68 71 72 72 73 73 73 73 71 74 79 80 78 76 77 77 78 79 80 80 80 80 81 82 83 84
35 35 34 34 34 35 35 36 36 37 37 37 35 35 35 36 36 36 35 34 34 34 34 34 35 35 36 37 37 38 39 39 40 41 41 42 42 43 44 45 46 47 48 49 50 51 52 53 54 54 55 56 57 58 59 60 61 62 62 64 65 65 66 68 70 70 71 71 71 71 69 71 76 77 74 73 72 72 74 76 76 75 76 77 78 79 80 81
36 36 35 35 35 35 35 36 36 36 36 35 34 34 35 35 34 33 33 33 33 33 34 34 34 35 36 37 38 38 39 40 40 41 41 42 43 44 45 46 47 49 50 51 51 52 53 54 54 54 55 56 56 57 57 59 60 60 61 62 64 64 65 66 67 68 69 69 70 69 67 69 74 73 71 69 68 69 71 73 72 72 73 74 74 74 75 75
36 36 36 35 35 36 36 36 36 36 35 33 33 33 33 33 32 31 32 32 32 33 33 33 34 35 36 37 38 38 40 40 40 41 42 43 44 46 46 48 48 49 51 51 52 52 53 53 54 54 54 55 55 55 56 57 58 59 60 61 62 63 63 63 63 65 66 66 68 67 64 67 72 70 68 65 64 65 67 67 66 66 67 67 67 68 68 68
36 36 36 35 35 36 36 36 36 35 33 32 32 32 32 31 30 30 31 31 31 32 32 33 34 35 36 37 38 39 39 40 41 42 43 44 46 47 48 48 49 50 50 51 51 51 51 52 52 52 53 53 53 54 55 56 57 58 58 59 61 62 63 62 61 62 63 64 66 65 63 66 68 66 63 60 58 59 60 59 59 59 60 61 62 63 63 63
37 36 36 36 36 36 36 36 35 33 32 32 32 31 30 29 29 30 30 30 31 32 32 33 34 35 37 38 38 39 39 40 42 43 45 46 47 48 49 49 50 50 50 50 51 51 51 51 50 50 51 51 51 52 52 53 54 54 55 56 57 58 60 60 59 59 60 60 62 60 59 61 61 59 57 54 52 54 54 54 55 56 56 58 60 61 62 61
38 37 37 37 37 37 36 35 33 32 32 31 30 29 28 29 29 30 30 30 30 31 32 33 35 36 37 37 38 38 40 42 44 45 46 47 47 48 49 50 50 50 49 49 50 50 49 50 50 49 49 50 50 50 50 50 50 50 50 50 50 51 53 54 54 54 53 53 55 53 53 57 55 53 53 51 50 51 50 52 54 55 55 56 58 60 60 61
39 38 37 37 37 37 35 33 32 31 30 29 28 27 28 28 29 29 29 29 30 31 32 34 35 36 37 37 38 39 41 43 45 46 47 48 48 48 49 49 49 49 48 48 48 48 48 48 48 48 48 48 48 48 48 47 47 46 46 46 46 46 47 49 48 49 48 48 50 49 50 54 53 49 50 49 49 49 48 50 53 54 55 56 57 58 59 60
38 37 37 37 36 34 32 31 31 30 28 27 27 27 28 28 28 29 29 29 30 32 33 34 35 36 36 37 39 41 43 44 45 46 47 47 48 47 47 47 47 46 46 46 46 46 46 46 46 46 45 44 44 44 44 44 43 43 43 42 43 43 43 45 46 46 46 46 47 47 48 53 52 47 47 47 48 48 47 48 51 52 54 55 57 58 58 59
37 36 35 35 33 31 30 30 29 27 26 26 26 27 27 28 28 28 29 29 31 32 33 34 34 35 36 38 40 42 43 45 46 46 47 47 47 46 46 45 44 44 44 44 44 44 43 43 42 42 41 41 40 40 40 40 41 40 41 41 41 41 41 42 44 45 46 45 44 44 46 52 53 47 46 47 47 47 47 48 50 51 52 54 55 56 57 58
36 34 34 32 30 29 29 28 26 26 25 26 26 27 27 27 27 28 29 30 31 33 33 34 34 35 37 39 41 43 44 45 46 46 46 46 46 45 44 43 43 42 42 42 41 40 40 39 39 38 38 38 37 37 37 37 37 38 38 39 39 40 40 41 42 43 45 46 44 41 42 49 54 50 46 47 47 47 47 48 49 50 51 52 53 54 55 55
35 33 31 29 28 28 26 25 25 25 25 26 26 27 27 27 27 28 29 31 32 33 33 34 34 36 38 40 41 43 44 45 46 46 46 45 45 44 43 42 42 41 41 40 39 38 37 36 36 35 35 35 35 35 34 34 34 35 35 36 37 38 40 40 41 41 43 46 46 43 41 45 52 53 48 47 48 47 47 48 50 51 51 52 53 53 54 54
34 31 28 27 27 25 24 23 24 24 25 25 26 26 26 26 27 28 30 31 32 33 33 34 36 38 39 41 42 43 44 45 45 45 45 44 44 43 42 42 41 41 40 39 39 38 37 36 35 35 34 34 34 33 33 33 33 33 33 33 34 35 37 38 40 40 41 45 46 44 44 43 48 53 50 48 50 49 47 48 51 52 52 53 53 54 55 55
30 28 27 26 24 22 22 23 23 24 25 25 25 25 25 26 28 29 30 31 32 33 33 35 37 39 41 42 43 43 44 45 45 45 44 44 43 43 42 42 41 41 41 40 40 40 39 39 38 37 37 36 35 34 34 33 32 32 32 31 31 32 34 35 36 37 39 43 45 45 45 44 46 51 50 49 51 49 48 50 51 52 53 54 54 55 56 57
27 26 25 23 21 21 21 22 23 24 24 24 24 24 25 27 29 30 30 31 32 32 34 36 38 40 41 42 43 44 44 44 44 44 44 43 43 43 42 42 41 41 41 41 40 40 40 40 40 40 40 39 38 37 37 36 36 35 33 32 31 31 33 33 34 34 35 38 42 43 44 44 45 50 50 48 49 49 48 50 51 52 53 55 56 56 57 58
25 24 22 20 20 20 22 23 23 23 23 23 23 24 26 28 29 30 31 32 32 33 35 37 39 41 42 43 44 44 44 44 44 44 43 43 43 42 42 42 41 40 40 40 40 40 40 40 40 40 40 40 40 39 39 39 39 39 38 36 34 33 34 36 35 34 34 35 37 39 41 41 43 48 50 48 48 47 47 49 50 51 52 54 55 56 58 59
23 21 19 19 20 21 22 22 23 22 22 22 23 25 28 29 30 31 31 32 33 34 36 38 40 41 42 43 44 44 44 44 44 44 43 43 42 42 42 42 41 41 40 40 40 40 40 40 40 40 40 40 40 40 39 39 39 40 40 39 38 36 35 37 38 37 37 37 38 39 41 42 44 46 48 48 46 44 45 47 48 49 50 52 53 54 55 57
20 18 18 19 20 22 22 22 21 21 21 22 24 26 29 30 30 31 32 32 33 35 37 39 40 42 43 43 44 44 45 45 45 44 44 43 42 42 42 42 42 42 41 42 42 42 42 41 41 41 41 41 41 41 40 40 40 41 41 40 40 38 36 36 38 39 39 39 40 42 42 44 48 51 51 49 47 45 43 44 46 47 49 49 50 51 53 54
17 18 19 20 21 21 21 20 20 21 22 24 26 28 30 30 31 32 32 33 34 36 38 39 41 42 43 44 45 45 46 45 45 45 45 44 43 43 43 43 43 42 42 42 43 44 45 45 45 45 44 44 43 43 42 41 41 41 43 42 42 42 39 37 37 37 39 39 40 42 42 43 48 55 58 53 49 49 47 46 46 47 47 47 48 49 50 52
18 19 19 20 20 20 19 19 20 21 23 26 28 29 30 31 31 32 33 34 35 37 39 40 42 43 44 45 46 47 47 47 47 46 46 46 45 44 44 44 44 44 43 42 43 44 46 47 48 48 49 48 47 47 46 45 43 43 45 44 44 45 44 42 40 39 39 38 40 42 42 43 46 56 64 59 53 55 54 51 50 50 49 48 48 49 49 51
19 19 20 20 19 19 18 19 21 23 26 27 29 30 30 31 32 32 33 35 36 38 40 41 43 45 46 47 47 48 48 49 48 48 47 47 47 46 45 46 46 46 46 44 43 44 44 47 49 50 51 52 51 51 51 49 47 46 47 47 46 46 47 46 44 44 43 40 39 42 44 43 45 55 67 65 61 63 60 56 56 54 53 51 50 51 51 51
18 19 19 18 18 18 19 20 23 25 27 28 29 30 31 32 32 33 34 36 38 39 41 43 44 46 47 48 49 49 50 50 50 50 49 49 49 48 47 47 48 49 49 47 46 45 43 45 48 50 51 52 53 54 55 54 52 51 51 52 50 49 49 49 46 45 46 43 39 41 43 43 43 51 65 70 71 72 65 60 60 59 56 54 53 54 55 55
19 19 18 17 17 18 20 22 25 26 27 29 30 31 32 32 33 34 35 37 39 41 42 44 46 47 48 49 50 51 51 51 51 51 51 50 51 50 49 49 49 51 51 51 49 48 45 43 46 50 51 52 54 56 57 58 57 57 57 57 56 54 54 54 50 47 48 46 40 38 40 40 40 47 57 66 75 79 73 65 63 64 60 56 56 57 58 58
18 17 17 17 18 20 22 24 25 26 27 29 30 32 32 33 34 35 36 38 40 42 43 45 47 49 49 51 52 52 52 52 53 53 52 51 52 52 51 50 51 52 53 53 52 51 48 43 43 48 51 52 55 57 58 59 60 60 61 61 61 61 60 58 56 54 53 50 43 37 36 35 38 44 49 58 71 79 79 74 71 69 64 58 58 59 60 59
17 17 17 18 20 21 22 24 25 26 28 30 31 32 33 34 35 36 38 40 41 43 45 46 48 50 51 52 53 54 53 53 54 54 54 53 53 53 53 53 52 53 53 54 54 54 51 46 42 44 49 51 54 58 59 60 62 63 63 63 64 66 66 64 62 60 60 58 50 42 35 29 34 44 47 54 66 73 76 76 76 73 68 64 62 62 62 62
17 17 19 20 20 21 22 24 26 27 29 31 32 33 34 35 36 37 39 41 43 45 46 48 49 51 52 54 55 55 54 54 56 56 56 56 55 54 55 55 56 56 55 55 56 56 55 50 45 44 47 49 53 58 60 60 64 65 65 65 66 69 70 69 66 64 66 65 59 53 41 29 33 45 50 54 60 67 72 74 76 75 73 71 69 68 66 65
17 18 19 19 20 21 23 25 27 29 30 31 32 33 35 36 36 38 40 43 45 46 48 50 51 52 53 55 56 56 54 54 56 57 57 57 58 57 56 57 58 59 59 58 59 60 58 55 50 47 48 49 52 57 60 62 65 67 66 66 69 72 74 76 73 68 70 69 66 65 51 35 36 47 52 55 58 65 72 74 75 75 74 74 74 73 71 69
18 18 18 19 20 22 25 27 28 29 30 32 33 35 36 37 37 39 42 44 47 49 50 51 53 54 55 57 58 56 54 54 56 58 58 58 59 60 59 60 61 62 63 62 62 63 63 61 56 53 51 52 55 58 61 65 68 69 68 69 72 74 76 81 79 75 75 71 70 73 60 43 47 56 58 61 64 67 72 73 74 75 75 76 76 76 75 74
17 17 18 19 21 24 26 27 29 30 32 33 35 36 37 38 39 41 44 46 48 51 52 54 55 56 57 58 58 57 56 54 54 57 59 59 60 62 63 63 63 64 66 66 66 67 68 66 64 61 58 57 58 60 64 69 72 73 73 73 76 78 79 83 83 82 81 73 73 80 68 53 61 69 68 70 72 72 73 73 74 76 78 78 78 78 79 79
17 17 19 21 23 25 27 29 30 32 33 35 36 37 37 39 41 43 46 48 50 52 54 56 57 58 59 59 58 59 59 58 56 56 59 60 61 62 64 65 65 67 69 70 70 71 71 71 71 71 69 64 62 64 68 72 75 75 75 77 79 81 83 85 86 87 85 77 79 86 76 66 71 76 76 78 78 77 77 77 78 81 82 82 82 82 83 84
18 19 21 23 25 27 28 30 31 33 35 36 37 38 39 41 43 45 48 51 52 53 55 57 59 60 60 59 59 60 63 63 60 58 59 61 62 63 64 66 67 69 71 72 74 75 75 73 74 77 79 75 72 73 76 79 81 79 79 81 82 84 87 89 90 91 88 86 87 86 81 78 79 80 83 85 84 83 83 84 86 87 86 86 85 86 86 86
20 21 23 25 27 28 30 31 33 34 36 37 39 40 41 42 44 47 50 52 54 55 56 58 61 61 60 60 60 61 64 66 65 64 64 65 66 66 66 67 69 71 73 75 77 79 79 77 77 81 83 81 80 82 85 88 89 87 86 86 87 89 90 92 93 93 93 96 93 84 84 88 86 84 89 90 88 89 89 90 92 92 91 91 89 88 88 88
22 23 25 27 28 30 31 33 34 35 37 38 40 42 43 44 46 49 52 53 55 56 57 60 62 62 61 62 62 62 64 67 67 68 69 70 70 70 70 71 73 75 77 79 80 83 84 80 79 84 87 85 85 87 91 94 94 93 92 92 93 94 95 96 97 96 97 102 97 86 88 94 93 91 93 91 91 93 92 94 95 95 95 94 92 92 92 92
24 25 27 28 30 32 33 34 36 37 38 41 43 44 46 47 48 50 53 54 56 58 58 60 62 62 63 65 65 64 66 67 67 69 73 74 73 73 74 74 76 78 80 82 83 86 89 86 84 88 91 89 89 92 95 98 97 95 94 95 96 98 98 99 100 98 100 103 99 93 93 96 97 97 95 94 95 95 95 97 97 97 96 95 95 95 95 95
26 28 29 30 32 34 35 36 37 38 40 43 45 46 48 49 50 52 54 55 57 59 60 60 62 63 65 67 68 68 70 70 70 72 75 76 75 76 77 77 79 81 82 84 86 89 92 91 89 94 96 92 92 96 98 99 98 96 96 98 99 98 99 101 100 99 100 101 100 99 99 98 99 98 97 97 98 98 99 100 99 99 98 97 98 98 98 98
28 30 31 32 33 35 36 37 39 40 42 44 45 47 49 50 51 53 56 57 58 60 60 60 62 64 66 70 71 71 73 74 75 76 78 79 79 80 82 82 83 85 85 87 89 92 95 95 95 99 100 94 93 98 101 101 100 98 97 97 98 98 98 99 100 100 100 100 100 102 102 101 101 101 101 100 101 101 102 102 102 101 101 101 101 101 101 101
30 32 33 34 34 35 36 38 41 43 44 45 46 48 50 50 51 53 56 60 61 62 62 62 63 65 68 71 73 73 75 77 78 79 81 82 82 84 86 87 87 89 89 91 94 96 99 100 100 104 103 97 97 102 103 101 100 98 97 98 98 98 99 99 100 101 101 101 102 103 104 104 103 103 104 104 104 104 105 105 104 103 104 104 104 104 105 104
32 34 35 35 35 37 38 40 43 44 45 47 48 49 50 51 52 54 56 60 63 64 64 65 66 68 70 73 74 76 77 78 79 80 81 83 85 87 88 90 91 93 95 97 99 101 103 105 105 107 107 103 102 104 103 100 99 98 99 100 99 99 101 102 103 103 103 103 103 104 105 105 104 104 104 105 106 106 107 108 106 105 106 106 107 107 106 106
Wind_Direction
224 226 227 228 229 231 232 234 236 239 242 245 246 248 250 252 255 257 260 263 264 265 267 269 270 271 274 276 278 279 281 283 284 284 284 284 284 282 279 275 273 270 268 266 267 268 267 265 262 261 260 261 262 264 265 266 266 267 267 266 265 264 262 262 263 263 263 264 263 261 261 261 260 260 260 260 260 260 260 260 260 260 260 260 260 260 260 259
223 225 228 229 230 233 235 238 240 243 245 246 248 249 250 252 255 258 261 263 264 266 268 270 271 273 275 277 279 281 282 283 283 283 283 283 283 280 277 273 271 270 268 267 267 268 269 268 265 264 263 261 259 259 260 261 263 265 266 266 266 265 264 263 263 264 265 266 264 263 262 262 262 262 262 262 262 262 262 262 262 262 262 261 261 261 261 261
224 226 228 231 234 236 238 241 243 244 246 247 249 250 252 254 256 258 260 261 263 266 268 270 272 274 276 278 280 281 282 283 283 282 282 282 281 278 275 271 269 268 267 268 267 267 269 269 269 268 267 265 261 260 260 260 262 263 265 266 266 265 265 266 266 266 267 267 266 265 264 264 265 265 265 266 265 265 264 265 265 264 264 264 264 264 264 263
227 228 230 233 237 239 241 242 244 245 247 248 249 251 253 254 256 258 259 261 263 266 268 270 272 274 277 279 281 282 282 282 282 281 280 279 278 276 273 270 268 268 268 268 268 267 268 270 271 271 270 268 266 264 263 263 264 266 267 268 267 266 267 267 267 268 268 268 268 267 265 265 265 264 264 265 265 264 264 265 266 265 266 266 267 266 265 265
229 231 233 235 239 241 242 243 245 246 247 248 249 251 252 254 256 257 259 261 264 266 269 271 273 275 278 279 281 282 282 282 281 280 279 277 275 274 272 270 268 268 269 269 268 268 268 269 271 271 271 269 269 268 267 266 266 266 267 266 266 267 268 269 268 269 270 270 270 269 268 268 268 268 267 268 268 266 265 264 264 265 266 267 267 267 267 266
230 232 234 237 240 241 242 243 244 244 245 246 248 251 252 254 255 257 259 262 264 267 270 272 274 276 278 279 281 281 282 281 281 279 277 275 274 272 271 270 269 268 268 268 268 268 268 268 269 269 270 270 271 271 271 271 270 269 268 268 268 268 269 269 269 269 269 270 270 269 269 269 269 269 270 271 270 270 269 268 267 267 267 267 268 269 269 269
230 232 235 237 239 240 240 240 241 241 243 246 248 251 252 253 255 257 260 262 265 268 270 272 275 276 278 280 281 281 282 281 280 279 277 275 273 272 271 270 269 268 267 267 267 268 267 267 268 268 269 269 268 269 270 271 272 272 272 272 272 272 272 272 272 271 269 269 269 269 269 268 268 267 268 269 268 269 270 270 270 269 269 269 270 270 271 271
229 230 232 234 236 237 236 237 239 240 242 245 247 249 250 252 254 257 261 263 266 268 271 273 275 278 280 281 282 282 282 281 280 279 277 276 275 274 272 271 270 269 269 268 267 267 267 267 267 267 268 268 267 267 268 269 270 270 270 270 270 270 271 272 272 272 271 269 268 268 268 268 268 268 268 268 268 268 269 269 269 269 269 270 271 272 273 274
225 226 229 231 233 233 234 236 238 240 242 243 245 246 249 252 255 258 261 264 266 269 271 274 277 279 281 282 282 282 282 282 281 280 280 279 278 277 276 274 273 272 271 269 269 268 268 267 267 267 267 267 267 266 266 267 268 269 269 269 269 269 269 270 270 271 271 270 270 269 269 269 269 269 269 269 270 269 269 269 269 270 270 271 271 272 273 274
219 221 225 227 229 231 233 235 237 239 241 242 244 246 249 253 256 259 262 264 267 270 273 276 279 280 281 282 282 282 282 282 282 281 281 280 279 278 278 277 275 274 273 272 271 270 270 269 269 269 268 268 268 267 266 266 267 267 267 267 268 269 268 268 269 269 269 270 270 270 269 269 269 268 267 268 269 268 268 269 269 269 270 271 271 271 271 273
216 218 221 223 226 229 231 234 236 238 240 243 245 248 251 254 257 260 263 266 269 273 276 279 280 280 281 281 281 281 281 281 281 281 281 281 281 281 280 279 278 277 276 275 274 273 272 272 271 271 270 270 269 269 268 267 266 266 266 266 266 267 267 268 268 268 268 269 269 268 268 268 268 267 266 266 267 267 268 268 269 269 270 271 271 272 273 274
213 215 218 220 224 227 231 233 236 239 241 244 247 250 253 256 259 263 266 269 273 277 279 279 280 281 281 281 281 281 282 282 283 284 284 284 284 284 283 283 282 281 280 278 278 277 276 275 274 273 272 272 272 271 270 269 268 267 267 266 266 267 267 267 267 268 268 268 268 268 268 269 268 268 267 267 268 268 269 269 270 270 271 272 272 273 274 274
211 214 217 219 223 227 231 234 237 240 243 246 249 252 255 258 262 265 269 273 277 278 279 280 281 281 282 282 283 283 285 286 287 287 287 286 286 285 285 284 283 283 282 281 280 279 279 278 277 276 275 275 274 274 273 272 271 270 269 269 269 269 269 269 269 269 269 269 269 269 269 269 269 269 268 268 269 269 270 270 271 271 271 272 272 272 273 273
210 214 218 220 224 229 232 235 238 242 245 248 251 253 257 261 264 268 273 276 279 279 281 282 282 283 283 284 285 287 288 289 290 289 289 289 288 288 287 287 286 286 285 284 283 282 281 280 279 279 278 277 277 276 275 274 274 273 272 271 271 270 270 271 271 271 271 271 271 271 271 271 271 270 270 270 270 270 270 270 271 271 271 271 271 271 271 271
211 216 219 222 226 231 235 238 241 244 247 250 253 257 261 265 269 273 277 279 280 281 283 284 284 284 285 287 288 290 291 292 292 292 292 292 292 292 292 291 290 289 288 287 286 285 284 283 282 281 281 280 279 278 277 277 276 275 274 273 273 272 272 272 272 272 272 272 272 272 272 271 271 271 271 271 271 271 271 271 270 270 271 271 270 270 270 270
212 217 221 225 228 233 237 241 244 247 250 253 258 262 266 270 274 278 280 281 283 284 285 285 285 286 288 290 291 292 293 293 294 295 295 296 296 295 295 294 293 292 292 291 290 289 289 288 287 286 284 283 282 281 280 279 278 277 276 275 274 273 273 273 273 273 273 273 273 273 272 271 271 271 272 272 272 272 272 271 271 271 271 270 270 270 270 270
214 218 223 227 231 235 239 243 246 250 253 258 263 267 271 275 279 281 282 283 284 284 285 285 286 288 290 291 292 293 294 295 297 298 298 298 298 297 297 297 297 296 296 295 294 294 293 292 291 290 288 287 286 285 283 282 281 280 279 277 276 275 274 273 274 274 274 274 274 273 273 273 272 272 272 273 273 273 273 272 272 272 271 270 270 270 269 270
215 220 224 228 233 237 241 245 249 252 257 263 267 272 276 279 281 282 283 283 284 284 285 286 288 289 290 292 293 295 296 298 299 300 300 300 300 300 300 300 299 299 298 297 297 296 295 294 293 292 291 290 289 288 286 285 284 282 281 279 278 277 276 275 275 275 275 275 275 274 274 274 273 273 274 274 274 274 273 273 273 272 272 271 271 270 270 270
217 221 225 229 234 239 243 247 251 255 261 266 271 275 278 279 280 281 281 282 282 284 285 286 288 290 291 293 295 297 299 300 301 302 302 303 303 302 302 301 301 300 300 299 298 297 296 295 294 293 292 291 290 289 288 287 285 284 282 281 280 279 278 277 276 276 276 276 276 276 276 274 274 275 276 276 275 274 273 273 273 273 273 273 273 273 273 273
218 222 226 230 235 240 245 249 254 259 265 269 273 276 277 278 279 280 280 281 283 284 285 287 289 291 294 296 298 300 302 303 304 304 304 304 304 303 304 303 303 303 302 301 300 299 298 297 296 295 294 293 292 290 289 288 287 285 283 282 280 279 279 278 277 276 276 276 276 277 276 275 276 277 277 277 276 275 275 275 275 274 275 275 276 276 276 276
220 224 228 232 237 242 247 252 258 263 267 271 274 276 277 278 279 279 280 282 283 284 286 289 291 294 296 299 301 303 305 305 306 306 306 306 306 306 306 305 305 304 304 303 302 301 301 300 299 298 297 296 294 293 291 290 289 288 286 284 283 281 280 280 279 278 277 276 276 276 276 275 276 277 278 278 277 276 277 278 278 277 277 277 277 277 277 277
222 225 230 235 239 244 250 256 261 266 270 272 274 275 276 277 278 278 280 281 283 285 289 291 294 297 299 302 305 306 307 307 308 308 308 307 307 307 306 306 305 305 304 304 304 303 303 302 301 301 299 298 297 295 294 293 292 290 289 287 286 284 283 281 280 279 278 277 277 277 277 276 276 276 277 278 277 276 277 278 278 278 278 277 276 275 276 275
225 227 232 237 242 248 254 260 264 268 271 272 273 275 276 276 277 279 280 282 285 289 292 295 297 300 303 306 307 308 309 309 309 308 308 308 307 307 306 306 305 305 306 306 306 305 305 304 303 302 301 300 299 297 297 296 294 293 290 288 287 285 284 283 282 280 279 277 277 278 278 277 276 275 276 276 276 277 276 275 275 275 276 276 275 275 275 275
229 231 235 240 246 252 257 262 266 268 270 272 274 275 275 276 278 280 282 286 290 292 295 297 300 303 306 307 309 310 310 310 309 309 309 309 308 308 307 307 307 307 307 307 307 306 306 306 306 305 305 304 303 302 301 300 298 296 293 290 288 286 285 284 284 283 282 279 277 278 278 278 278 276 275 275 274 274 274 273 272 272 273 274 274 275 276 277
233 236 240 245 251 255 259 262 265 267 269 272 274 274 275 276 279 282 286 290 292 295 297 300 303 305 307 308 310 310 310 310 310 310 310 310 309 309 309 309 309 309 309 308 307 307 308 309 310 311 311 311 310 308 307 305 303 301 298 295 292 289 286 284 284 284 284 282 279 277 276 277 279 278 276 276 275 274 273 272 271 269 269 270 272 274 275 277
236 240 244 249 252 255 258 261 264 267 270 272 272 273 275 277 282 286 289 292 295 297 299 302 305 306 308 310 311 311 312 312 312 312 311 311 311 311 311 311 310 310 309 308 308 309 311 312 314 315 316 316 316 316 314 313 311 308 305 302 298 295 291 288 286 284 284 283 282 280 277 276 279 280 278 277 275 274 273 272 271 269 268 268 268 270 272 273
238 243 246 248 251 254 257 260 264 268 270 270 271 273 277 281 285 289 292 295 297 299 302 305 307 309 310 311 312 313 313 313 313 314 313 314 314 314 313 312 311 310 309 310 311 312 313 314 316 317 318 318 319 319 319 318 318 316 314 311 308 304 299 295 292 289 287 285 284 283 280 277 278 279 279 278 276 275 274 273 272 271 270 270 269 269 269 270
240 242 244 247 250 253 257 261 265 267 268 269 272 276 280 285 288 291 294 297 298 301 304 307 309 310 311 312 313 314 314 315 315 316 316 316 316 316 315 314 313 313 313 314 315 316 317 318 319 319 319 319 318 318 318 318 318 317 317 316 315 313 309 305 300 296 292 289 287 286 284 282 280 279 278 277 276 275 275 274 274 274 273 273 272 271 270 270
239 240 243 246 250 254 258 262 264 265 267 270 274 279 284 288 291 294 297 298 300 303 306 308 310 311 312 313 314 315 316 317 317 318 318 318 318 318 317 317 317 317 317 318 318 319 320 320 320 320 320 319 319 319 319 318 318 316 316 316 315 315 313 312 309 306 301 297 294 292 289 287 285 283 281 279 278 278 276 275 275 275 276 276 276 275 275 274
237 240 243 247 251 256 259 261 262 265 268 272 278 283 287 291 294 296 298 299 301 304 307 309 311 312 313 314 315 317 318 319 319 319 319 319 319 319 319 320 319 319 319 319 319 319 319 320 320 319 319 319 319 319 319 319 318 317 316 315 315 315 314 314 313 311 309 305 303 300 297 293 289 286 285 282 281 280 279 277 277 277 276 276 276 276 276 277
237 241 245 250 254 256 258 260 263 266 271 276 281 285 289 292 295 296 298 300 302 305 308 310 311 313 314 316 317 319 320 320 321 321 320 320 320 320 321 321 321 321 321 320 320 319 319 319 319 319 319 319 319 318 318 317 316 316 315 314 314 314 314 314 313 312 310 309 308 307 305 303 298 293 290 288 285 283 281 281 280 279 278 277 277 277 277 277
238 243 248 252 254 256 258 261 264 269 275 279 283 287 290 293 295 297 298 300 303 306 308 310 312 313 315 318 319 320 321 322 322 322 322 321 321 321 321 321 321 322 322 322 322 321 321 320 319 319 319 319 319 318 317 317 316 315 314 314 313 311 311 311 310 310 309 309 310 309 309 308 305 301 296 294 293 291 288 285 282 280 280 280 280 280 280 279
239 243 248 250 253 255 258 262 268 274 279 282 286 289 291 293 295 297 299 301 304 306 309 311 312 314 317 320 321 322 322 322 322 322 322 322 322 321 321 320 320 320 321 322 323 323 322 321 321 320 319 319 319 317 317 317 316 316 314 314 313 311 310 308 306 307 307 307 307 306 307 306 305 301 297 295 296 294 290 287 285 283 282 282 283 282 282 281
239 243 246 249 252 256 261 267 273 278 282 285 287 289 291 293 295 297 300 302 305 307 310 311 313 315 318 321 323 324 323 322 322 322 322 322 322 321 321 320 319 319 320 321 322 322 322 322 321 321 319 319 318 317 317 316 316 316 313 313 313 311 310 308 306 305 303 304 304 304 305 305 305 301 297 296 296 292 290 289 288 286 285 284 284 283 282 282
240 243 246 249 254 260 266 273 277 280 283 285 287 289 292 294 296 299 301 303 306 308 310 312 313 316 319 321 323 324 323 322 322 322 322 322 321 322 321 320 319 318 318 320 320 320 321 321 320 320 319 318 318 317 316 315 315 315 313 312 311 311 309 307 307 306 303 303 302 303 304 305 306 303 299 300 298 292 291 291 290 288 287 286 284 283 283 282
243 245 248 253 259 266 272 276 279 282 284 286 288 291 293 295 298 300 302 305 307 309 311 312 314 316 318 320 322 324 323 322 322 321 321 321 321 321 321 320 319 318 318 319 319 318 320 320 319 318 317 317 317 316 315 315 315 314 312 311 310 310 307 305 305 305 302 301 301 301 301 302 303 300 299 302 299 294 292 292 291 289 288 287 287 286 285 285
243 247 252 259 265 271 275 278 281 283 286 287 290 293 295 297 300 302 304 307 308 310 311 312 314 316 318 319 321 323 323 321 321 320 321 321 320 320 320 320 319 317 317 318 318 317 319 321 320 317 316 317 316 315 315 314 314 314 313 311 311 309 307 305 304 303 299 297 298 298 297 299 298 296 298 301 299 296 295 294 292 290 289 290 290 290 289 288
244 250 257 264 269 274 278 281 283 285 287 289 292 294 297 299 301 304 306 307 309 311 312 313 314 315 317 319 320 322 322 320 319 319 320 320 319 319 319 318 318 317 316 317 316 316 317 320 320 317 316 317 315 314 314 314 314 313 312 312 312 309 307 307 306 304 300 297 297 295 293 295 295 293 294 294 294 295 297 296 294 291 291 292 293 292 291 290
251 256 262 268 273 278 281 283 285 288 290 292 294 296 298 301 303 305 307 308 310 312 312 313 314 315 317 318 320 321 321 320 318 319 320 319 319 318 318 317 316 315 315 315 314 314 315 318 319 317 316 316 315 313 313 314 313 311 311 312 311 309 309 308 307 307 304 301 300 296 292 290 290 291 290 286 287 291 294 295 294 293 295 296 295 293 293 292
256 261 266 272 277 281 283 285 288 291 293 294 296 298 300 302 304 306 307 309 311 312 313 313 314 315 316 318 319 320 320 319 318 318 319 319 318 318 317 316 315 314 314 314 312 312 313 315 317 317 315 315 314 312 313 313 311 310 311 312 311 309 309 308 307 307 306 304 304 301 295 291 287 286 285 283 284 287 288 290 292 294 297 297 295 293 293 292
260 265 270 276 281 283 285 288 290 293 295 296 298 300 301 303 305 307 308 310 311 313 313 313 314 315 316 318 319 319 319 318 317 318 319 318 318 317 316 315 314 314 314 313 312 312 312 314 316 316 315 315 314 312 313 313 310 309 311 312 311 310 309 308 307 308 306 305 306 304 299 298 294 287 285 284 282 282 284 286 290 292 294 294 293 292 291 290
265 269 275 280 284 286 288 290 293 296 297 298 299 301 302 304 306 307 308 310 312 312 313 313 314 315 317 318 319 318 317 317 317 318 318 318 318 317 316 315 315 314 313 312 313 312 312 314 315 315 315 315 313 313 313 311 309 310 312 312 311 310 309 307 307 308 306 305 308 303 298 303 303 294 289 286 283 281 282 284 287 290 290 291 291 290 289 288
269 274 280 284 286 288 291 294 297 298 299 300 300 301 303 304 306 307 308 310 311 312 313 313 314 315 317 318 318 317 315 316 317 318 318 319 318 317 317 316 315 314 312 312 313 312 312 314 314 315 314 313 314 314 312 310 309 310 312 312 310 309 308 306 306 306 304 307 308 299 298 307 305 296 292 290 287 286 286 286 288 289 289 289 289 289 288 287
271 277 283 287 289 292 295 298 299 300 300 300 301 302 304 305 307 308 309 310 311 312 313 313 314 315 317 318 318 316 315 316 317 318 318 318 317 317 317 316 316 314 312 313 313 312 313 314 315 315 313 313 314 313 311 309 309 309 311 310 309 308 307 305 305 304 305 308 303 297 301 307 301 296 294 292 290 291 290 290 290 289 288 288 288 287 287 286
273 278 284 288 292 294 297 299 300 300 301 301 302 303 305 306 307 309 309 310 311 313 313 313 313 315 317 318 317 316 315 315 317 318 317 317 317 317 316 316 315 313 313 312 312 311 312 314 315 314 313 314 316 315 312 310 308 309 310 309 308 307 305 304 304 304 305 304 298 298 304 303 297 296 294 292 292 293 293 292 290 289 288 287 286 285 285 286
275 281 286 290 293 296 299 300 301 302 302 302 303 304 306 307 308 309 309 310 311 312 313 312 313 315 317 317 317 317 315 315 317 319 318 317 317 317 316 315 314 313 312 312 311 312 312 313 315 313 312 314 316 316 313 310 309 310 309 308 307 305 304 303 303 303 303 299 297 301 303 299 296 295 292 292 293 293 292 291 289 288 288 286 286 287 287 286
278 284 288 292 295 298 299 300 301 303 303 304 305 306 307 308 309 309 310 310 311 311 312 312 313 315 316 316 316 316 315 315 317 319 318 318 318 317 316 315 313 313 312 312 312 311 311 313 314 312 311 314 315 314 312 309 309 309 309 308 307 304 304 303 302 301 299 297 299 302 300 297 295 293 291 292 292 291 290 289 288 288 288 288 289 288 288 287
282 286 290 293 296 297 299 300 302 304 305 305 306 306 307 308 309 310 310 310 309 310 312 313 313 315 316 315 316 316 315 316 317 318 317 316 317 316 314 314 313 312 312 312 312 310 310 313 314 311 310 313 313 312 309 307 308 308 308 307 305 304 303 301 300 299 298 298 300 300 297 294 293 292 293 293 291 290 290 288 288 288 288 289 289 288 287 287
285 288 291 294 296 297 299 301 303 305 305 306 306 306 307 308 309 310 309 309 309 310 312 313 313 314 315 315 316 317 316 316 317 317 315 315 316 315 313 313 313 312 312 312 311 310 310 312 312 310 309 311 311 309 307 306 307 307 306 305 304 303 301 299 299 299 298 298 299 298 295 293 293 293 293 292 291 291 290 289 289 289 289 289 288 287 287 286
287 290 293 295 297 298 301 302 304 305 305 306 306 306 307 308 309 309 308 308 309 310 311 312 313 314 315 315 316 317 317 317 317 316 315 315 316 315 314 314 313 312 312 311 310 310 310 310 310 309 308 310 311 308 307 306 306 306 305 303 302 300 299 298 298 298 297 297 296 295 294 294 294 293 292 291 291 290 289 289 289 288 288 288 287 286 286 285
291 293 295 297 299 300 302 303 304 305 307 307 307 307 308 308 308 309 309 309 310 310 311 312 312 314 315 315 316 316 316 316 316 316 315 315 315 315 314 314 313 312 312 311 310 310 310 310 310 308 309 311 311 308 306 306 305 305 304 302 300 300 299 298 298 297 296 296 295 294 293 293 292 292 291 291 290 289 288 288 287 287 287 286 286 285 285 285
292 294 296 298 300 301 301 303 304 306 308 308 308 308 308 308 308 309 309 309 310 310 311 311 312 313 314 314 314 315 315 315 315 315 314 314 315 314 314 314 314 313 312 311 311 310 310 310 310 309 309 311 310 307 306 305 305 305 303 301 301 301 300 298 298 297 296 295 294 293 292 292 291 290 290 289 288 288 287 287 287 286 286 285 285 284 284 284
Height
10678 10681 10684 10687 10690 10692 10695 10697 10699 10701 10703 10705 10707 10708 10710 10711 10712 10713 10713 10713 10713 10713 10713 10712 10711 10711 10710 10710 10710 10709 10708 10707 10706 10703 10701 10699 10698 10697 10695 10693 10691 10690 10690 10689 10687 10686 10686 10686 10686 10686 10685 10685 10684 10683 10683 10682 10681 10680 10680 10679 10678 10678 10679 10678 10678 10678 10677 10676 10676 10676 10675 10674 10674 10674 10674 10674 10673 10672 10672 10670 10671 10671 10671 10671 10671 10672 10672 10673
10676 10679 10681 10684 10687 10690 10692 10695 10697 10699 10700 10702 10704 10705 10707 10708 10709 10710 10710 10710 10709 10709 10709 10708 10707 10706 10706 10706 10706 10705 10703 10703 10702 10699 10696 10695 10693 10692 10690 10688 10687 10686 10685 10684 10684 10682 10681 10681 10681 10681 10681 10681 10680 10679 10679 10678 10677 10676 10675 10673 10672 10673 10673 10673 10673 10672 10672 10670 10669 10669 10668 10667 10667 10667 10668 10667 10666 10665 10663 10663 10664 10664 10663 10664 10664 10665 10665 10666
10674 10677 10679 10682 10685 10688 10690 10693 10695 10696 10698 10699 10701 10702 10704 10705 10706 10707 10707 10707 10706 10705 10705 10704 10703 10702 10701 10701 10701 10700 10699 10698 10697 10695 10692 10690 10688 10687 10686 10685 10683 10682 10681 10680 10679 10678 10677 10676 10676 10676 10676 10676 10675 10674 10674 10673 10673 10672 10670 10668 10667 10666 10666 10667 10668 10667 10666 10664 10662 10662 10661 10661 10660 10661 10660 10660 10659 10656 10654 10656 10656 10655 10656 10656 10656 10658 10658 10657
10672 10675 10678 10681 10683 10686 10688 10690 10692 10694 10695 10697 10698 10699 10701 10702 10703 10704 10704 10703 10703 10702 10701 10700 10699 10698 10698 10697 10697 10696 10695 10694 10692 10690 10688 10686 10684 10683 10682 10681 10679 10678 10677 10676 10675 10674 10673 10672 10671 10671 10670 10670 10669 10668 10668 10668 10668 10667 10666 10664 10661 10660 10660 10662 10662 10661 10659 10657 10655 10655 10655 10654 10654 10654 10653 10654 10652 10648 10647 10648 10647 10647 10648 10648 10649 10650 10649 10649
10670 10673 10676 10679 10681 10683 10686 10688 10689 10691 10693 10694 10695 10697 10698 10699 10700 10701 10700 10700 10699 10698 10697 10696 10695 10695 10694 10693 10692 10691 10690 10689 10687 10686 10684 10682 10680 10679 10678 10677 10676 10674 10673 10672 10671 10670 10668 10667 10667 10666 10665 10664 10663 10662 10661 10661 10662 10662 10659 10657 10655 10654 10655 10655 10655 10654 10652 10650 10648 10649 10649 10647 10646 10646 10646 10646 10644 10641 10640 10639 10639 10640 10641 10641 10641 10641 10640 10641
10668 10671 10674 10676 10678 10681 10683 10685 10687 10688 10690 10691 10693 10694 10696 10697 10697 10697 10697 10696 10695 10695 10694 10693 10692 10691 10690 10690 10688 10686 10685 10684 10682 10681 10679 10678 10676 10675 10673 10672 10671 10670 10669 10667 10666 10665 10664 10663 10661 10660 10659 10658 10657 10655 10654 10654 10654 10654 10652 10649 10648 10648 10648 10647 10647 10647 10646 10645 10643 10642 10642 10640 10640 10639 10639 10638 10635 10634 10634 10632 10632 10633 10633 10633 10633 10633 10632 10633
10667 10670 10672 10674 10676 10679 10681 10683 10684 10686 10687 10689 10690 10692 10693 10693 10694 10694 10693 10693 10692 10691 10690 10689 10688 10687 10686 10685 10684 10682 10680 10679 10677 10676 10675 10674 10672 10671 10670 10668 10667 10666 10664 10663 10661 10660 10659 10657 10656 10654 10653 10652 10651 10649 10648 10647 10647 10646 10644 10643 10642 10641 10640 10639 10639 10639 10639 10639 10638 10636 10635 10634 10634 10632 10632 10629 10626 10628 10628 10624 10624 10625 10625 10625 10625 10625 10625 10625
10665 10668 10670 10672 10674 10677 10679 10680 10682 10683 10685 10687 10688 10689 10690 10690 10690 10691 10690 10690 10689 10688 10687 10686 10685 10683 10682 10681 10679 10677 10676 10674 10673 10671 10670 10669 10667 10666 10665 10664 10662 10661 10660 10658 10656 10655 10654 10652 10650 10648 10647 10646 10645 10644 10643 10642 10640 10638 10638 10637 10636 10634 10633 10632 10631 10631 10631 10631 10631 10630 10629 10628 10627 10626 10624 10618 10619 10624 10621 10617 10616 10617 10617 10617 10617 10617 10616 10615
10664 10666 10668 10670 10672 10674 10677 10678 10680 10681 10683 10685 10686 10687 10687 10687 10688 10688 10687 10687 10686 10685 10683 10682 10681 10679 10678 10677 10675 10673 10671 10669 10668 10666 10665 10664 10662 10661 10660 10658 10657 10656 10655 10653 10651 10650 10648 10646 10644 10642 10642 10640 10639 10638 10637 10635 10633 10632 10631 10629 10628 10627 10626 10625 10624 10623 10623 10623 10623 10623 10622 10621 10618 10619 10614 10608 10613 10617 10612 10610 10609 10608 10608 10607 10607 10608 10607 10605
10662 10664 10667 10669 10671 10673 10675 10676 10678 10679 10680 10682 10683 10684 10685 10685 10685 10685 10684 10683 10682 10681 10680 10679 10677 10676 10674 10673 10671 10669 10667 10666 10664 10663 10661 10659 10658 10657 10655 10653 10652 10651 10649 10647 10646 10644 10642 10641 10638 10636 10635 10633 10632 10631 10630 10629 10627 10625 10624 10622 10620 10619 10618 10617 10616 10616 10615 10614 10615 10615 10614 10613 10610 10609 10606 10601 10606 10607 10605 10604 10602 10600 10599 10597 10597 10597 10597 10596
10660 10662 10665 10667 10669 10671 10673 10674 10676 10677 10678 10679 10680 10681 10682 10682 10682 10682 10681 10680 10679 10678 10677 10675 10674 10672 10670 10669 10667 10665 10664 10662 10661 10659 10658 10656 10654 10652 10650 10649 10647 10645 10644 10642 10640 10638 10636 10634 10632 10631 10628 10626 10625 10624 10623 10621 10620 10618 10617 10615 10613 10612 10609 10608 10608 10607 10607 10606 10607 10607 10607 10606 10601 10600 10598 10596 10598 10599 10599 10597 10595 10593 10591 10589 10587 10586 10586 10585
10658 10661 10663 10666 10668 10669 10671 10672 10673 10674 10676 10677 10678 10678 10679 10679 10679 10678 10678 10676 10675 10674 10673 10671 10670 10668 10667 10665 10663 10662 10660 10659 10657 10656 10654 10652 10650 10648 10646 10644 10642 10640 10638 10636 10634 10632 10630 10628 10626 10624 10622 10619 10618 10617 10615 10613 10612 10611 10610 10608 10606 10604 10601 10599 10599 10598 10597 10597 10597 10598 10601 10598 10590 10590 10590 10588 10590 10591 10591 10589 10587 10586 10583 10581 10578 10576 10575 10573
10657 10659 10661 10664 10666 10667 10669 10670 10671 10672 10673 10674 10675 10675 10676 10676 10676 10675 10674 10673 10672 10671 10669 10667 10666 10664 10663 10661 10660 10658 10656 10655 10653 10651 10649 10647 10645 10643 10641 10639 10636 10634 10632 10631 10628 10626 10624 10621 10619 10618 10615 10613 10611 10609 10608 10605 10604 10603 10602 10600 10598 10597 10593 10590 10590 10588 10587 10587 10587 10588 10592 10588 10579 10578 10580 10580 10581 10581 10581 10580 10578 10576 10574 10572 10569 10567 10564 10561
10655 10658 10660 10662 10664 10665 10667 10668 10669 10670 10670 10671 10672 10673 10673 10673 10672 10672 10671 10670 10668 10667 10665 10664 10662 10660 10659 10657 10656 10654 10652 10651 10649 10647 10645 10642 10640 10638 10636 10634 10631 10629 10627 10625 10622 10620 10618 10615 10613 10611 10608 10607 10604 10602 10600 10598 10596 10595 10594 10592 10590 10589 10586 10582 10581 10580 10578 10578 10577 10577 10582 10578 10567 10565 10569 10571 10572 10571 10571 10569 10567 10565 10563 10562 10560 10557 10553 10550
10654 10656 10658 10660 10662 10663 10664 10665 10666 10667 10668 10668 10669 10670 10670 10669 10669 10668 10667 10666 10664 10663 10661 10660 10658 10656 10655 10653 10652 10650 10648 10646 10644 10642 10640 10638 10635 10633 10631 10628 10625 10623 10621 10619 10616 10613 10611 10608 10606 10604 10602 10599 10597 10594 10592 10590 10588 10587 10586 10583 10581 10581 10578 10574 10572 10571 10569 10569 10568 10567 10572 10569 10556 10554 10559 10561 10561 10561 10561 10558 10556 10555 10554 10552 10549 10546 10543 10539
10653 10655 10657 10658 10660 10661 10662 10663 10664 10665 10665 10666 10667 10667 10667 10666 10665 10665 10663 10662 10660 10658 10657 10656 10654 10652 10651 10650 10648 10646 10644 10642 10640 10638 10635 10633 10630 10628 10626 10623 10620 10617 10614 10612 10609 10606 10603 10600 10598 10596 10594 10591 10589 10587 10584 10581 10579 10578 10577 10574 10572 10571 10570 10567 10563 10562 10560 10559 10558 10557 10561 10558 10547 10545 10550 10552 10552 10552 10550 10545 10545 10546 10543 10541 10538 10535 10532 10529
10651 10653 10655 10656 10658 10659 10660 10660 10661 10662 10663 10664 10664 10664 10663 10663 10662 10661 10659 10658 10656 10655 10654 10652 10651 10649 10648 10646 10644 10643 10640 10638 10636 10633 10631 10628 10626 10623 10620 10617 10614 10611 10607 10604 10602 10599 10596 10592 10590 10588 10585 10582 10580 10578 10575 10572 10570 10569 10567 10565 10562 10561 10560 10558 10556 10553 10551 10550 10548 10546 10551 10547 10537 10537 10540 10543 10544 10543 10539 10535 10536 10535 10531 10529 10527 10525 10523 10521
10649 10651 10653 10654 10656 10657 10657 10658 10659 10660 10661 10662 10662 10661 10660 10659 10658 10657 10656 10654 10653 10652 10651 10649 10648 10646 10645 10643 10641 10639 10636 10634 10632 10629 10626 10624 10621 10617 10615 10612 10609 10605 10602 10598 10595 10592 10589 10585 10582 10579 10576 10574 10572 10569 10567 10564 10562 10560 10558 10556 10553 10551 10550 10550 10548 10545 10543 10541 10537 10537 10541 10536 10527 10528 10532 10535 10536 10533 10528 10526 10526 10524 10520 10519 10517 10515 10514 10513
10647 10649 10651 10652 10653 10654 10655 10656 10657 10658 10659 10659 10659 10658 10657 10657 10655 10654 10653 10652 10650 10649 10648 10646 10645 10643 10641 10639 10637 10635 10633 10630 10627 10625 10621 10619 10615 10612 10609 10606 10603 10600 10596 10592 10589 10586 10583 10579 10577 10573 10569 10567 10564 10562 10559 10556 10553 10551 10549 10547 10545 10542 10539 10539 10540 10538 10535 10533 10528 10529 10531 10525 10519 10521 10524 10527 10527 10523 10519 10518 10517 10514 10512 10509 10507 10505 10505 10505
10646 10647 10649 10650 10651 10652 10653 10654 10655 10656 10657 10656 10656 10655 10655 10654 10653 10652 10650 10649 10648 10647 10645 10644 10642 10640 10638 10636 10634 10631 10629 10625 10623 10620 10617 10614 10610 10607 10603 10600 10596 10594 10590 10586 10583 10579 10576 10573 10570 10567 10564 10560 10557 10555 10552 10549 10546 10543 10542 10539 10537 10535 10531 10530 10530 10529 10528 10525 10520 10522 10521 10514 10513 10515 10515 10518 10518 10514 10511 10511 10508 10506 10504 10502 10499 10497 10496 10495
10644 10646 10647 10648 10649 10650 10651 10652 10653 10654 10654 10654 10653 10653 10652 10651 10650 10649 10647 10647 10645 10644 10643 10641 10639 10637 10635 10632 10630 10627 10624 10621 10618 10615 10611 10608 10605 10601 10598 10594 10590 10587 10584 10580 10576 10573 10569 10566 10563 10560 10557 10554 10550 10547 10544 10542 10539 10536 10534 10532 10530 10528 10524 10522 10521 10520 10519 10518 10513 10515 10512 10506 10508 10510 10508 10510 10509 10506 10506 10503 10500 10498 10497 10495 10492 10489 10488 10487
10642 10644 10645 10647 10647 10648 10650 10651 10651 10651 10651 10651 10650 10649 10649 10648 10647 10646 10645 10644 10643 10641 10639 10637 10635 10633 10631 10629 10626 10623 10620 10617 10613 10610 10606 10603 10600 10597 10593 10589 10585 10581 10578 10575 10571 10567 10564 10560 10556 10553 10550 10547 10544 10540 10537 10535 10532 10529 10527 10525 10523 10521 10519 10515 10514 10512 10512 10511 10507 10507 10505 10498 10501 10504 10503 10503 10501 10500 10501 10498 10493 10491 10488 10486 10484 10482 10480 10479
10641 10643 10644 10645 10646 10647 10648 10649 10649 10649 10648 10648 10647 10647 10646 10645 10644 10643 10642 10641 10639 10638 10636 10634 10632 10630 10627 10625 10622 10619 10616 10612 10609 10605 10602 10599 10595 10592 10588 10584 10581 10577 10573 10570 10566 10561 10558 10554 10551 10547 10544 10541 10538 10535 10532 10528 10526 10524 10521 10519 10516 10515 10513 10509 10508 10506 10505 10505 10502 10501 10498 10491 10493 10498 10498 10496 10495 10493 10495 10492 10488 10485 10481 10478 10476 10474 10472 10470
10639 10641 10642 10643 10645 10646 10646 10646 10646 10646 10645 10645 10644 10644 10643 10642 10641 10640 10639 10638 10636 10634 10632 10630 10629 10626 10624 10621 10618 10615 10611 10608 10605 10601 10598 10594 10590 10587 10584 10580 10576 10572 10568 10565 10561 10557 10553 10549 10546 10542 10538 10535 10532 10529 10526 10523 10520 10518 10515 10514 10511 10509 10508 10504 10501 10499 10497 10497 10497 10497 10493 10484 10484 10491 10491 10490 10489 10488 10487 10485 10482 10479 10475 10471 10469 10466 10464 10462
10638 10640 10641 10642 10643 10644 10644 10644 10644 10643 10642 10642 10641 10641 10640 10639 10638 10637 10636 10635 10633 10631 10629 10627 10625 10623 10620 10618 10614 10611 10607 10604 10600 10597 10593 10589 10585 10582 10578 10575 10571 10567 10564 10560 10557 10553 10549 10545 10541 10537 10534 10530 10527 10524 10521 10517 10514 10512 10510 10508 10506 10503 10501 10499 10496 10494 10490 10487 10489 10492 10490 10481 10475 10480 10485 10483 10482 10482 10480 10478 10475 10472 10470 10466 10463 10461 10458 10456
10636 10638 10639 10641 10641 10641 10642 10641 10641 10640 10640 10640 10639 10638 10637 10636 10636 10634 10633 10631 10630 10628 10626 10624 10622 10619 10616 10614 10611 10607 10603 10600 10596 10592 10588 10585 10581 10577 10573 10570 10566 10563 10559 10556 10552 10548 10545 10541 10537 10533 10530 10526 10522 10519 10516 10513 10510 10507 10505 10502 10500 10497 10495 10493 10491 10489 10486 10480 10480 10484 10484 10480 10471 10470 10476 10476 10473 10474 10473 10471 10467 10465 10463 10461 10458 10456 10453 10451
10635 10637 10638 10638 10639 10639 10639 10639 10638 10638 10638 10637 10636 10635 10634 10634 10633 10631 10630 10628 10626 10624 10622 10620 10618 10615 10612 10610 10606 10603 10599 10595 10592 10588 10584 10580 10577 10573 10569 10565 10562 10558 10554 10551 10547 10543 10540 10536 10533 10529 10526 10522 10519 10515 10512 10509 10506 10502 10500 10497 10495 10492 10489 10487 10484 10484 10481 10475 10474 10475 10475 10475 10469 10463 10467 10468 10464 10465 10466 10464 10460 10457 10456 10454 10452 10450 10447 10445
10634 10635 10636 10636 10637 10637 10637 10636 10636 10636 10635 10634 10633 10632 10632 10631 10630 10628 10627 10625 10623 10621 10619 10617 10614 10611 10608 10605 10602 10599 10596 10591 10588 10584 10580 10576 10572 10568 10565 10561 10557 10553 10549 10546 10542 10538 10534 10531 10528 10524 10521 10518 10515 10512 10508 10505 10502 10499 10496 10494 10491 10488 10484 10482 10479 10478 10476 10470 10468 10468 10467 10468 10464 10457 10459 10460 10456 10458 10458 10455 10452 10450 10449 10446 10444 10443 10440 10437
10632 10633 10634 10634 10634 10634 10634 10634 10634 10633 10632 10632 10631 10630 10629 10628 10627 10625 10624 10622 10620 10618 10616 10613 10611 10608 10604 10602 10598 10595 10592 10588 10583 10579 10575 10571 10568 10564 10560 10556 10552 10548 10544 10541 10537 10533 10529 10526 10523 10519 10516 10513 10510 10507 10504 10500 10498 10494 10492 10490 10487 10484 10480 10477 10475 10473 10471 10466 10462 10461 10460 10460 10457 10449 10450 10452 10450 10450 10451 10448 10445 10444 10441 10438 10436 10434 10431 10428
10630 10631 10631 10632 10632 10632 10632 10632 10631 10631 10630 10629 10628 10627 10626 10625 10624 10622 10621 10619 10617 10615 10613 10610 10607 10604 10601 10598 10594 10590 10587 10583 10579 10576 10572 10568 10564 10560 10556 10552 10548 10545 10541 10537 10533 10530 10526 10522 10519 10516 10512 10509 10506 10503 10500 10496 10493 10490 10487 10485 10483 10481 10477 10473 10470 10468 10466 10462 10458 10456 10452 10452 10450 10443 10440 10442 10443 10444 10443 10440 10439 10437 10434 10431 10428 10426 10423 10420
10628 10629 10629 10630 10630 10630 10630 10629 10629 10628 10627 10627 10626 10625 10624 10622 10621 10619 10618 10615 10613 10612 10609 10606 10604 10600 10597 10594 10590 10587 10583 10579 10575 10571 10568 10564 10560 10556 10552 10548 10544 10541 10537 10533 10530 10526 10523 10520 10516 10512 10509 10505 10502 10499 10496 10493 10489 10486 10483 10480 10478 10477 10474 10469 10466 10464 10461 10458 10454 10450 10447 10444 10440 10436 10433 10432 10434 10437 10436 10433 10432 10430 10427 10424 10421 10419 10416 10413
10626 10627 10627 10627 10628 10628 10628 10627 10626 10625 10625 10624 10624 10623 10621 10620 10618 10616 10615 10612 10610 10608 10606 10603 10600 10597 10594 10590 10586 10583 10579 10575 10571 10567 10564 10560 10556 10553 10548 10545 10541 10537 10533 10529 10525 10521 10518 10515 10512 10509 10505 10502 10498 10495 10492 10489 10486 10482 10479 10476 10474 10472 10471 10467 10463 10460 10457 10454 10450 10445 10443 10438 10431 10426 10424 10425 10426 10428 10429 10426 10423 10421 10419 10417 10414 10412 10410 10406
10624 10625 10625 10625 10625 10625 10625 10624 10624 10623 10623 10622 10621 10620 10618 10617 10615 10613 10611 10609 10607 10605 10602 10599 10596 10593 10590 10586 10582 10578 10574 10571 10567 10563 10560 10555 10553 10549 10545 10541 10537 10534 10530 10526 10522 10517 10513 10509 10506 10503 10500 10497 10494 10490 10488 10485 10482 10479 10474 10471 10469 10466 10466 10463 10460 10457 10453 10451 10447 10442 10440 10436 10429 10417 10411 10418 10420 10417 10417 10417 10415 10414 10411 10411 10408 10406 10404 10400
10622 10623 10623 10623 10623 10623 10623 10622 10621 10621 10620 10619 10618 10617 10616 10614 10612 10610 10608 10606 10604 10602 10599 10596 10592 10589 10586 10582 10578 10574 10570 10567 10563 10559 10555 10551 10548 10545 10541 10537 10533 10529 10526 10523 10520 10515 10510 10505 10500 10497 10494 10491 10488 10485 10482 10480 10477 10474 10469 10466 10463 10459 10458 10456 10455 10452 10450 10449 10444 10439 10435 10432 10428 10412 10398 10407 10412 10406 10406 10407 10406 10405 10403 10403 10402 10399 10397 10394
10621 10621 10621 10621 10621 10621 10620 10619 10619 10618 10617 10617 10615 10614 10613 10611 10609 10607 10605 10603 10600 10598 10595 10592 10588 10585 10582 10578 10575 10571 10566 10562 10559 10555 10551 10547 10543 10540 10536 10532 10528 10524 10521 10519 10517 10513 10509 10503 10497 10493 10489 10485 10482 10478 10475 10473 10471 10468 10464 10461 10458 10454 10451 10448 10448 10445 10443 10444 10441 10436 10431 10427 10425 10408 10389 10393 10398 10393 10394 10397 10395 10395 10394 10394 10393 10391 10389 10386
10619 10619 10619 10619 10618 10618 10617 10617 10616 10616 10615 10614 10612 10611 10609 10608 10606 10604 10602 10600 10597 10594 10591 10588 10585 10581 10578 10574 10571 10567 10563 10558 10555 10550 10546 10543 10538 10535 10531 10527 10523 10519 10516 10514 10511 10509 10507 10502 10495 10489 10484 10480 10476 10472 10468 10464 10463 10461 10457 10454 10451 10449 10444 10441 10442 10439 10435 10436 10437 10434 10429 10425 10422 10408 10390 10384 10381 10377 10381 10385 10384 10383 10383 10384 10383 10381 10379 10376
10617 10617 10617 10617 10616 10616 10615 10614 10614 10613 10612 10611 10609 10608 10606 10604 10603 10601 10598 10596 10593 10590 10587 10584 10580 10577 10574 10570 10566 10563 10559 10555 10551 10547 10542 10538 10534 10530 10526 10523 10518 10514 10510 10507 10505 10502 10502 10500 10493 10485 10480 10477 10471 10466 10462 10457 10454 10452 10448 10445 10443 10440 10437 10433 10433 10432 10427 10427 10431 10431 10426 10423 10419 10409 10397 10385 10370 10361 10366 10372 10373 10371 10372 10374 10373 10370 10369 10367
10615 10615 10615 10614 10614 10613 10612 10612 10611 10610 10609 10608 10606 10604 10603 10601 10599 10597 10595 10592 10589 10586 10583 10580 10576 10573 10569 10566 10562 10559 10555 10550 10546 10542 10539 10534 10529 10525 10521 10518 10514 10509 10504 10501 10498 10496 10495 10497 10493 10482 10476 10473 10466 10459 10456 10451 10447 10444 10440 10437 10433 10429 10427 10424 10422 10421 10418 10417 10423 10425 10423 10421 10414 10405 10400 10389 10369 10355 10353 10356 10358 10359 10361 10364 10363 10360 10358 10357
10613 10613 10612 10612 10611 10611 10610 10609 10608 10608 10606 10605 10603 10601 10599 10598 10596 10594 10591 10588 10585 10582 10578 10575 10572 10568 10565 10562 10558 10554 10550 10546 10541 10537 10534 10530 10525 10520 10516 10512 10508 10504 10500 10495 10491 10488 10488 10490 10490 10483 10475 10470 10463 10455 10451 10446 10439 10435 10433 10430 10424 10418 10415 10414 10413 10410 10405 10404 10410 10414 10418 10419 10410 10399 10395 10386 10370 10357 10349 10345 10345 10346 10349 10351 10351 10349 10348 10345
10611 10610 10610 10610 10609 10608 10607 10606 10606 10605 10603 10601 10600 10598 10596 10594 10592 10590 10587 10584 10581 10577 10574 10571 10567 10564 10560 10557 10554 10551 10546 10541 10535 10531 10528 10523 10520 10516 10511 10505 10501 10497 10494 10490 10484 10480 10479 10480 10483 10480 10473 10468 10461 10451 10446 10442 10434 10428 10427 10424 10417 10409 10404 10402 10404 10402 10394 10391 10394 10397 10405 10414 10407 10393 10385 10379 10369 10357 10346 10339 10337 10338 10339 10339 10338 10338 10337 10334
10609 10608 10608 10607 10607 10606 10605 10604 10603 10602 10600 10598 10596 10595 10593 10591 10589 10586 10583 10580 10576 10573 10570 10566 10562 10560 10556 10553 10549 10546 10543 10537 10530 10526 10523 10518 10513 10509 10506 10500 10495 10489 10485 10483 10478 10472 10470 10471 10473 10473 10468 10464 10458 10449 10442 10436 10429 10424 10422 10418 10411 10402 10394 10388 10389 10393 10387 10382 10382 10379 10385 10400 10400 10385 10375 10370 10362 10351 10341 10336 10334 10333 10332 10330 10328 10327 10326 10324
10607 10606 10605 10605 10604 10604 10602 10601 10600 10599 10597 10595 10593 10591 10589 10587 10585 10582 10579 10576 10572 10568 10565 10561 10558 10554 10551 10548 10544 10540 10538 10534 10528 10521 10517 10513 10507 10501 10498 10494 10488 10482 10476 10474 10470 10463 10460 10460 10462 10463 10462 10458 10452 10446 10439 10430 10422 10419 10417 10413 10404 10397 10390 10378 10374 10379 10377 10376 10375 10364 10366 10383 10385 10372 10364 10358 10350 10343 10336 10332 10330 10327 10324 10322 10318 10316 10313 10311
10604 10604 10603 10603 10602 10601 10600 10599 10597 10595 10594 10592 10590 10588 10586 10583 10581 10578 10574 10571 10567 10563 10559 10556 10552 10549 10546 10543 10538 10534 10530 10529 10526 10518 10512 10508 10503 10495 10491 10486 10481 10475 10468 10464 10461 10455 10451 10449 10448 10449 10452 10452 10448 10442 10433 10423 10416 10412 10410 10405 10396 10390 10384 10372 10366 10364 10363 10370 10367 10347 10351 10371 10367 10353 10348 10341 10335 10332 10328 10325 10324 10318 10313 10311 10307 10304 10300 10296
10602 10602 10601 10600 10600 10598 10597 10596 10594 10592 10590 10588 10586 10584 10582 10579 10576 10573 10570 10566 10563 10559 10555 10550 10546 10543 10541 10537 10532 10527 10522 10521 10522 10517 10509 10504 10499 10492 10486 10480 10475 10468 10460 10456 10451 10446 10443 10440 10436 10432 10433 10438 10441 10437 10428 10419 10411 10408 10405 10399 10390 10383 10374 10365 10360 10352 10351 10361 10353 10332 10339 10357 10349 10336 10331 10324 10319 10320 10317 10314 10311 10305 10301 10298 10295 10291 10287 10282
10600 10599 10599 10598 10597 10596 10594 10593 10591 10589 10587 10584 10582 10580 10578 10575 10572 10569 10565 10561 10558 10555 10550 10545 10540 10537 10535 10531 10527 10521 10514 10510 10512 10512 10506 10499 10494 10489 10482 10475 10469 10461 10454 10448 10442 10436 10434 10433 10429 10420 10415 10418 10422 10421 10414 10406 10401 10400 10398 10391 10383 10376 10365 10356 10350 10342 10341 10344 10336 10328 10332 10336 10333 10324 10312 10305 10306 10307 10305 10300 10293 10288 10285 10283 10281 10278 10275 10271
10597 10597 10596 10595 10594 10593 10591 10589 10587 10586 10583 10581 10578 10576 10574 10572 10569 10565 10561 10556 10552 10549 10545 10539 10534 10532 10529 10525 10521 10516 10508 10502 10501 10500 10497 10492 10488 10483 10477 10471 10463 10455 10448 10441 10434 10427 10423 10426 10424 10413 10406 10406 10407 10404 10396 10387 10383 10384 10382 10377 10371 10363 10355 10347 10338 10334 10330 10318 10317 10330 10326 10311 10314 10312 10297 10291 10294 10291 10288 10284 10276 10271 10267 10265 10265 10264 10261 10258
10595 10594 10593 10593 10591 10589 10588 10586 10584 10582 10580 10577 10574 10571 10569 10567 10565 10560 10555 10551 10547 10543 10540 10534 10527 10525 10523 10518 10515 10512 10505 10498 10494 10490 10485 10481 10478 10473 10467 10462 10454 10447 10440 10432 10426 10417 10411 10416 10417 10404 10397 10399 10399 10394 10385 10373 10369 10369 10366 10362 10355 10346 10341 10334 10325 10324 10317 10297 10299 10320 10316 10293 10290 10291 10284 10282 10281 10275 10271 10266 10258 10254 10250 10249 10249 10246 10243 10240
10592 10591 10590 10589 10588 10586 10584 10583 10581 10579 10576 10573 10570 10567 10564 10562 10560 10556 10551 10546 10541 10537 10535 10529 10522 10519 10515 10509 10507 10504 10498 10494 10491 10485 10477 10473 10470 10465 10459 10455 10447 10439 10433 10425 10418 10408 10399 10403 10407 10395 10387 10391 10391 10383 10373 10363 10359 10358 10354 10348 10340 10332 10326 10318 10311 10310 10302 10285 10285 10297 10296 10283 10272 10268 10269 10268 10261 10257 10254 10246 10240 10238 10237 10236 10233 10228 10225 10221
10589 10588 10587 10586 10585 10583 10581 10579 10577 10576 10573 10569 10566 10563 10560 10557 10554 10550 10545 10541 10536 10530 10528 10524 10518 10513 10509 10502 10498 10496 10489 10485 10484 10480 10471 10465 10463 10455 10449 10447 10440 10431 10425 10418 10409 10400 10391 10391 10393 10383 10375 10383 10384 10372 10360 10352 10348 10346 10342 10335 10326 10320 10312 10302 10296 10294 10287 10277 10276 10274 10270 10266 10258 10253 10254 10251 10242 10238 10234 10227 10224 10222 10221 10220 10215 10211 10208 10204
10586 10585 10584 10583 10582 10580 10578 10576 10574 10572 10569 10566 10563 10559 10556 10552 10549 10544 10538 10534 10530 10526 10522 10519 10514 10509 10503 10496 10491 10488 10482 10476 10473 10469 10461 10456 10453 10445 10437 10434 10429 10421 10416 10409 10399 10392 10383 10380 10381 10370 10361 10370 10374 10360 10347 10341 10335 10331 10329 10321 10312 10306 10300 10290 10282 10278 10273 10267 10264 10256 10248 10247 10244 10237 10236 10233 10227 10222 10215 10209 10208 10206 10203 10200 10196 10193 10190 10186
10583 10582 10580 10580 10578 10577 10575 10573 10570 10567 10565 10562 10558 10555 10551 10547 10544 10540 10532 10525 10521 10519 10516 10512 10508 10504 10498 10491 10485 10481 10476 10470 10465 10460 10452 10445 10442 10435 10426 10421 10415 10408 10403 10396 10388 10382 10373 10366 10366 10355 10344 10353 10357 10343 10332 10327 10320 10316 10311 10302 10297 10291 10284 10277 10269 10263 10260 10254 10249 10242 10233 10230 10229 10223 10218 10214 10209 10204 10197 10192 10191 10190 10186 10181 10177 10174 10171 10168
10579 10578 10576 10576 10575 10573 10572 10569 10566 10564 10561 10558 10553 10549 10546 10542 10538 10535 10530 10521 10514 10510 10508 10504 10500 10497 10492 10485 10480 10475 10470 10465 10460 10454 10447 10440 10433 10427 10418 10411 10404 10395 10388 10382 10374 10370 10361 10352 10349 10339 10328 10333 10337 10324 10314 10310 10305 10302 10293 10282 10280 10276 10267 10260 10253 10247 10243 10238 10232 10227 10219 10214 10211 10208 10203 10198 10192 10186 10179 10173 10173 10173 10168 10163 10159 10156 10154 10152